FW8899 Weather Reports


time (UTC)temp
F
wind
direction
speed
knots
gust
knots
rain 1hr
in
rain 24hr
in
rain mn
in
humidity
%
barometer
mb
20260506184913 60 96 4.3 11.3 0.00 0.47 0.47 96 1015.4
20260506184410 60 62 3.5 5.2 0.00 0.47 0.47 96 1015.8
20260506183908 60 95 4.3 5.2 0.00 0.47 0.47 96 1015.9
20260506183402 60 48 4.3 13.0 0.00 0.47 0.47 96 1015.9
20260506182900 60 33 7.8 9.6 0.00 0.47 0.47 96 1015.8
20260506182357 60 99 2.6 6.1 0.00 0.47 0.47 96 1016.1
20260506181854 60 65 3.5 9.6 0.00 0.47 0.47 96 1016.4
20260506181352 60 20 4.3 7.8 0.00 0.47 0.47 96 1016.1
20260506180849 61 64 3.5 6.1 0.00 0.47 0.47 96 1016.2
20260506180345 61 64 2.6 5.2 0.00 0.47 0.47 96 1016.2
20260506175842 61 41 4.3 9.6 0.00 0.47 0.47 96 1016.5
20260506175338 62 41 3.5 3.5 0.00 0.47 0.47 96 1016.5
20260506174836 62 88 1.7 3.5 0.00 0.47 0.47 96 1016.5
20260506174333 61 96 1.7 5.2 0.00 0.47 0.47 96 1016.6
20260506173831 62 34 4.3 7.8 0.00 0.47 0.47 96 1016.6
20260506173327 62 74 1.7 5.2 0.00 0.47 0.47 96 1016.7
20260506172824 62 62 4.3 6.1 0.00 0.47 0.47 96 1016.6
20260506172321 62 47 1.7 6.1 0.12 0.47 0.47 96 1016.4
20260506171818 62 73 2.6 7.8 0.40 0.47 0.47 96 1016.5
20260506171315 63 71 2.6 9.6 0.97 0.44 0.44 96 1016.3
20260506170813 63 70 3.5 7.8 1.39 0.40 0.40 96 1016.1
20260506170309 63 81 3.5 6.1 1.30 0.28 0.28 96 1016.2
20260506165808 65 68 3.5 11.3 0.73 0.16 0.16 96 1015.9
20260506165306 65 96 0.0 1.7 0.07 0.05 0.05 95 1016.2
20260506164801 66 88 1.7 3.5 0.05 0.04 0.04 95 1016.0
20260506164258 66 78 8.7 9.6 0.21 0.04 0.04 94 1016.0
20260506163755 67 78 3.5 5.2 0.17 0.03 0.03 92 1015.3
20260506163250 68 73 1.7 5.2 0.00 0.00 0.00 91 1015.3
20260506162746 70 55 7.0 7.8 0.00 0.00 0.00 89 1015.1
20260506162244 72 27 2.6 6.1 0.00 0.00 0.00 89 1015.2
20260506161741 76 53 5.2 7.8 0.00 0.00 0.00 87 1015.0
20260506161239 78 99 0.0 5.2 0.00 0.00 0.00 85 1014.8
20260506160736 79 129 0.0 3.5 0.00 0.00 0.00 86 1014.6
20260506160232 78 128 1.7 5.2 0.00 0.00 0.00 86 1014.7
20260506155731 79 120 4.3 6.1 0.00 0.00 0.00 86 1014.7
20260506155227 79 168 3.5 3.5 0.00 0.00 0.00 86 1014.6
20260506153335 78 135 4.3 5.2 0.00 0.00 0.00 86 1014.3
20260506152832 78 203 2.6 6.1 0.00 0.00 0.00 87 1014.2
20260506152329 78 139 1.7 6.1 0.00 0.00 0.00 88 1014.5
20260506151828 78 208 4.3 6.1 0.00 0.00 0.00 87 1014.3
20260506151324 78 147 0.0 1.7 0.00 0.00 0.00 87 1014.3
20260506150821 78 123 2.6 3.5 0.00 0.00 0.00 87 1014.2
20260506150318 78 179 3.5 9.6 0.00 0.00 0.00 88 1014.1
20260506145815 78 121 1.7 6.1 0.00 0.00 0.00 87 1014.2
20260506145311 78 177 4.3 5.2 0.00 0.00 0.00 88 1014.1
20260506144809 77 166 1.7 9.6 0.00 0.00 0.00 89 1014.1
20260506144305 77 142 2.6 6.1 0.00 0.00 0.00 89 1014.4
20260506143803 77 233 4.3 7.8 0.00 0.00 0.00 89 1014.2
20260506143300 76 218 4.3 6.1 0.00 0.00 0.00 90 1014.1
20260506142759 76 110 1.7 6.1 0.00 0.00 0.00 90 1014.2
20260506142256 76 197 4.3 6.1 0.00 0.00 0.00 90 1014.4
20260506141754 76 121 0.0 5.2 0.00 0.00 0.00 90 1014.2
20260506141252 76 140 1.7 5.2 0.00 0.00 0.00 90 1014.2
20260506140750 76 196 4.3 5.2 0.00 0.00 0.00 90 1014.3
20260506140246 77 134 4.3 6.1 0.00 0.00 0.00 90 1014.1
20260506135743 77 122 0.0 1.7 0.00 0.00 0.00 90 1014.0
20260506135239 76 104 2.6 5.2 0.00 0.00 0.00 90 1014.3
20260506134736 76 112 0.0 5.2 0.00 0.00 0.00 91 1014.0
20260506134233 76 127 0.9 1.7 0.00 0.00 0.00 92 1014.2
20260506133730 75 115 1.7 1.7 0.00 0.00 0.00 92 1014.0
20260506133226 75 113 0.9 3.5 0.00 0.00 0.00 92 1014.1
20260506132723 75 110 0.0 1.7 0.00 0.00 0.00 93 1014.2
20260506132221 75 119 0.0 1.7 0.00 0.00 0.00 93 1014.2
20260506131719 75 115 1.7 3.5 0.00 0.00 0.00 93 1014.0
20260506131214 75 111 0.0 1.7 0.00 0.00 0.00 93 1014.1
20260506130711 75 121 0.9 3.5 0.00 0.00 0.00 93 1014.2
20260506130208 75 111 0.0 0.0 0.00 0.00 0.00 93 1014.1
20260506125707 75 131 1.7 3.5 0.00 0.00 0.00 93 1014.1
20260506125204 75 132 0.9 1.7 0.00 0.00 0.00 93 1014.2
20260506124702 74 147 1.7 3.5 0.00 0.00 0.00 94 1013.9
20260506124200 74 119 1.7 5.2 0.00 0.00 0.00 94 1013.9
20260506123657 74 116 0.9 1.7 0.00 0.00 0.00 94 1014.0
20260506123155 74 116 1.7 1.7 0.00 0.00 0.00 95 1013.7
20260506122652 74 116 1.7 3.5 0.00 0.00 0.00 95 1013.6
20260506122150 74 117 2.6 3.5 0.00 0.00 0.00 95 1013.8
20260506121647 73 190 3.5 5.2 0.00 0.00 0.00 95 1013.4
20260506121143 73 121 0.9 1.7 0.00 0.00 0.00 95 1013.1
20260506120641 73 119 1.7 3.5 0.00 0.00 0.00 96 1013.0
20260506120138 73 112 0.0 3.5 0.00 0.00 0.00 96 1013.1
20260506115637 73 116 0.0 1.7 0.00 0.00 0.00 96 1013.1
20260506115134 73 112 0.0 1.7 0.00 0.00 0.00 96 1013.1
20260506114631 73 114 0.0 0.0 0.00 0.00 0.00 96 1013.2
20260506114129 73 114 0.0 1.7 0.00 0.00 0.00 96 1013.1
20260506113628 73 159 1.7 3.5 0.00 0.00 0.00 95 1013.0
20260506113125 73 115 0.9 3.5 0.00 0.00 0.00 96 1012.9
20260506112621 73 113 0.0 1.7 0.00 0.00 0.00 95 1012.9
20260506112118 73 134 1.7 1.7 0.00 0.00 0.00 95 1012.8
20260506111616 73 132 1.7 1.7 0.00 0.00 0.00 95 1012.7
20260506111114 73 126 2.6 3.5 0.00 0.00 0.00 95 1013.0
20260506110611 73 118 1.7 3.5 0.00 0.00 0.00 95 1012.4
20260506110108 73 112 0.0 3.5 0.00 0.00 0.00 95 1012.5
20260506105604 73 146 1.7 6.1 0.00 0.00 0.00 95 1012.3
20260506105101 73 118 0.0 3.5 0.00 0.00 0.00 95 1012.3
20260506104600 73 150 0.9 1.7 0.00 0.00 0.00 95 1012.3
20260506104057 73 118 0.0 5.2 0.00 0.00 0.00 95 1012.4
20260506103554 73 150 1.7 3.5 0.00 0.00 0.00 95 1012.3
20260506103050 73 169 3.5 6.1 0.00 0.00 0.00 95 1012.4
20260506102549 73 130 0.9 5.2 0.00 0.00 0.00 94 1012.1
20260506102046 73 155 2.6 6.1 0.00 0.00 0.00 94 1012.1
20260506101542 73 198 4.3 5.2 0.00 0.00 0.00 94 1012.2
20260506101040 73 113 1.7 6.1 0.00 0.00 0.00 94 1012.0
20260506100538 73 232 3.5 5.2 0.00 0.00 0.00 94 1012.1
20260506100036 73 198 4.3 5.2 0.00 0.00 0.00 94 1012.0
20260506095534 73 107 1.7 13.0 0.00 0.00 0.00 94 1011.7
20260506095030 73 127 3.5 11.3 0.00 0.00 0.00 94 1011.6
20260506094528 74 218 4.3 9.6 0.00 0.00 0.00 94 1011.7
20260506094026 74 188 5.2 6.1 0.00 0.00 0.00 93 1011.7
20260506093524 74 154 5.2 6.1 0.00 0.00 0.00 93 1011.6
20260506093021 74 92 2.6 5.2 0.00 0.00 0.00 93 1011.9
20260506092519 74 114 2.6 5.2 0.00 0.00 0.00 93 1011.6
20260506092015 74 251 7.0 7.8 0.00 0.00 0.00 93 1011.6
20260506091514 74 142 1.7 3.5 0.00 0.00 0.00 93 1011.6
20260506091011 74 148 6.1 9.6 0.00 0.00 0.00 93 1011.4
20260506090509 74 123 1.7 6.1 0.00 0.00 0.00 92 1011.5
20260506090004 74 68 5.2 11.3 0.00 0.00 0.00 92 1011.5
20260506085501 74 127 0.9 5.2 0.00 0.00 0.00 92 1011.4
20260506084958 74 128 3.5 9.6 0.00 0.00 0.00 92 1011.4
20260506084455 74 142 1.7 5.2 0.00 0.00 0.00 92 1011.4
20260506083951 74 117 0.9 5.2 0.00 0.00 0.00 92 1011.3
20260506083448 74 109 3.5 6.1 0.00 0.00 0.00 92 1011.6
20260506082945 74 112 1.7 6.1 0.00 0.00 0.00 92 1011.5
20260506082442 74 239 3.5 7.8 0.00 0.00 0.00 92 1011.3
20260506081938 74 102 0.0 9.6 0.00 0.00 0.00 92 1011.1
20260506081437 74 229 3.5 5.2 0.00 0.00 0.00 92 1011.1
20260506080933 74 133 2.6 3.5 0.00 0.00 0.00 92 1010.6
20260506080430 74 173 2.6 6.1 0.00 0.00 0.00 91 1010.6
20260506073414 75 139 1.7 5.2 0.00 0.00 0.00 90 1011.2
20260506072912 75 117 0.9 11.3 0.00 0.00 0.00 90 1011.2
20260506072409 75 107 4.3 7.8 0.00 0.00 0.00 90 1011.5
20260506071906 75 105 0.9 6.1 0.00 0.00 0.00 90 1011.5
20260506071404 75 110 1.7 7.8 0.00 0.00 0.00 90 1011.8
20260506070901 75 199 5.2 9.6 0.00 0.00 0.00 90 1011.8
20260506070358 75 166 2.6 13.0 0.00 0.00 0.00 90 1012.0
20260506062335 75 132 2.6 5.2 0.00 0.00 0.00 90 1011.9
20260506061831 75 132 4.3 7.8 0.00 0.00 0.00 90 1011.9
20260506061328 75 121 0.9 3.5 0.00 0.00 0.00 90 1011.8
20260506060826 75 196 3.5 13.0 0.00 0.00 0.00 90 1011.9
20260506060324 75 209 4.3 5.2 0.00 0.00 0.00 90 1012.0
20260506051255 75 155 2.6 3.5 0.00 0.00 0.00 91 1011.8
20260506050753 75 139 3.5 7.8 0.00 0.00 0.00 92 1011.5
20260506050250 75 154 3.5 5.2 0.00 0.00 0.00 92 1011.4
20260506044741 75 116 2.6 3.5 0.00 0.00 0.00 92 1011.3
20260506044238 75 108 1.7 3.5 0.00 0.00 0.00 92 1011.3
20260506043735 75 89 2.6 5.2 0.00 0.00 0.00 92 1011.1
20260506043233 75 117 0.9 3.5 0.00 0.00 0.00 91 1011.2
20260506042731 75 143 1.7 9.6 0.00 0.00 0.00 92 1011.3
20260506042229 75 102 0.0 3.5 0.00 0.00 0.00 91 1011.4
20260506041728 75 128 3.5 9.6 0.00 0.00 0.00 91 1011.2
20260506041224 75 112 4.3 5.2 0.00 0.00 0.00 91 1011.3
20260506040722 75 111 0.9 3.5 0.00 0.00 0.00 91 1011.1
20260506040219 75 140 1.7 5.2 0.00 0.00 0.00 91 1011.5
20260506035715 75 158 4.3 6.1 0.00 0.00 0.00 91 1011.3
20260506035213 75 155 2.6 5.2 0.00 0.00 0.00 91 1011.4
20260506034709 75 101 0.9 7.8 0.00 0.00 0.00 91 1011.1
20260506034207 75 114 0.9 5.2 0.00 0.00 0.00 91 1010.6
20260506033704 75 107 2.6 3.5 0.00 0.00 0.00 91 1010.8
20260506033200 75 146 1.7 3.5 0.00 0.00 0.00 91 1011.1
20260506032658 75 110 0.9 3.5 0.00 0.00 0.00 91 1011.6
20260506032155 75 128 1.7 7.8 0.00 0.00 0.00 91 1011.5
20260506031651 75 132 1.7 5.2 0.00 0.00 0.00 91 1011.4
20260506031148 75 147 2.6 5.2 0.00 0.00 0.00 91 1011.5
20260506030647 75 112 1.7 3.5 0.00 0.00 0.00 90 1011.3
20260506030144 75 104 0.9 1.7 0.00 0.00 0.00 90 1011.2
20260506025640 75 122 0.0 3.5 0.00 0.00 0.00 90 1011.2
20260506025136 75 136 4.3 5.2 0.00 0.00 0.00 90 1011.1
20260506024634 75 160 3.5 7.8 0.00 0.00 0.00 90 1010.8
20260506024130 75 198 5.2 6.1 0.00 0.00 0.00 90 1010.9
20260506023627 75 118 1.7 3.5 0.00 0.00 0.00 90 1010.8
20260506023124 75 117 0.9 3.5 0.00 0.00 0.00 90 1010.9
20260506022621 75 141 3.5 5.2 0.00 0.00 0.00 90 1010.5
20260506022119 75 173 4.3 6.1 0.00 0.00 0.00 90 1010.2
20260506021616 76 108 0.9 3.5 0.00 0.00 0.00 90 1010.6
20260506021113 76 106 0.0 3.5 0.00 0.00 0.00 90 1010.2
20260506020610 76 139 1.7 3.5 0.00 0.00 0.00 89 1010.2
20260506020108 76 128 0.9 3.5 0.00 0.00 0.00 89 1010.3
20260506015605 76 104 0.0 1.7 0.00 0.00 0.00 89 1010.2
20260506015102 76 112 0.9 6.1 0.00 0.00 0.00 89 1010.4
20260506014600 76 108 1.7 6.1 0.00 0.00 0.00 88 1010.2
20260506014055 76 117 1.7 1.7 0.00 0.00 0.00 88 1010.3
20260506013554 76 200 3.5 5.2 0.00 0.00 0.00 88 1010.1
20260506013050 76 110 1.7 3.5 0.00 0.00 0.00 88 1009.9
20260506012546 77 123 2.6 5.2 0.00 0.00 0.00 88 1009.8
20260506012043 77 115 1.7 1.7 0.00 0.00 0.00 87 1009.6
20260506011541 77 107 0.0 1.7 0.00 0.00 0.00 87 1009.4
20260506011037 77 111 0.9 6.1 0.00 0.00 0.00 86 1009.5
20260506010536 77 112 0.9 5.2 0.00 0.00 0.00 86 1009.5
20260506010032 77 122 2.6 5.2 0.00 0.00 0.00 86 1009.6
20260506005530 77 155 1.7 3.5 0.00 0.00 0.00 86 1009.4
20260506005025 78 123 2.6 3.5 0.00 0.00 0.00 86 1009.7
20260506004523 78 115 1.7 5.2 0.00 0.00 0.00 85 1009.5
20260506004020 78 130 2.6 3.5 0.00 0.00 0.00 85 1009.6
20260506003516 78 110 0.0 1.7 0.00 0.00 0.00 84 1009.6
20260506003012 79 109 0.0 3.5 0.00 0.00 0.00 83 1009.4
20260506002508 79 132 2.6 3.5 0.00 0.00 0.00 83 1009.2
20260506002004 79 114 0.9 3.5 0.00 0.00 0.00 82 1009.3
20260506001501 79 111 0.0 1.7 0.00 0.00 0.00 81 1009.3
20260506000958 79 210 4.3 6.1 0.00 0.00 0.00 81 1009.1
20260506000455 79 116 0.9 9.6 0.00 0.00 0.00 81 1009.4
20260505235952 80 180 1.7 3.5 0.00 0.00 0.00 81 1009.5
20260505235451 80 140 2.6 5.2 0.00 0.00 0.00 80 1009.2
20260505234947 80 122 1.7 7.8 0.00 0.00 0.00 80 1009.3
20260505234444 81 95 2.6 13.0 0.00 0.00 0.00 79 1009.2
20260505233941 81 194 6.1 6.1 0.00 0.00 0.00 78 1009.3
20260505233439 81 145 1.7 6.1 0.00 0.00 0.00 78 1009.2
20260505232936 82 127 1.7 5.2 0.00 0.00 0.00 77 1008.9
20260505232434 82 136 2.6 6.1 0.00 0.00 0.00 76 1008.9
20260505231931 82 137 1.7 5.2 0.00 0.00 0.00 77 1009.0
20260505231428 82 170 3.5 7.8 0.00 0.00 0.00 76 1009.1
20260505230926 82 135 2.6 6.1 0.00 0.00 0.00 76 1009.0
20260505230423 82 112 2.6 13.0 0.00 0.00 0.00 76 1009.0
20260505225919 82 106 0.0 13.0 0.00 0.00 0.00 76 1009.1
20260505225417 82 136 1.7 7.8 0.00 0.00 0.00 75 1008.8
20260505224912 82 103 2.6 6.1 0.00 0.00 0.00 75 1009.0
20260505224410 82 134 1.7 5.2 0.00 0.00 0.00 76 1009.4
20260505223906 82 117 1.7 7.8 0.00 0.00 0.00 76 1009.1
20260505223404 82 252 4.3 5.2 0.00 0.00 0.00 74 1009.0
20260505222859 83 147 5.2 9.6 0.00 0.00 0.00 75 1009.3
20260505222356 83 170 1.7 5.2 0.00 0.00 0.00 74 1009.3
20260505221852 82 0 2.6 7.8 0.00 0.00 0.00 76 1009.3
20260505221350 82 101 2.6 6.1 0.00 0.00 0.00 76 1009.3
20260505220847 82 146 2.6 9.6 0.00 0.00 0.00 76 1009.4
20260505220344 82 137 0.9 3.5 0.00 0.00 0.00 75 1009.0
20260505215841 82 120 2.6 5.2 0.00 0.00 0.00 76 1009.4
20260505215339 82 119 3.5 11.3 0.00 0.00 0.00 76 1009.3
20260505214837 82 119 4.3 7.8 0.00 0.00 0.00 76 1009.3
20260505214334 82 107 1.7 9.6 0.00 0.00 0.00 76 1009.7
20260505213831 81 234 4.3 9.6 0.00 0.00 0.00 76 1009.6
20260505213329 81 195 6.1 7.8 0.00 0.00 0.00 75 1009.3
20260505212825 81 119 5.2 6.1 0.00 0.00 0.00 76 1009.7
20260505212322 80 128 2.6 13.0 0.00 0.00 0.00 78 1009.7
20260505211818 80 167 1.7 11.3 0.00 0.00 0.00 78 1010.0
20260505211316 80 123 1.7 3.5 0.00 0.00 0.00 79 1010.0
20260505210812 80 179 3.5 6.1 0.00 0.00 0.00 79 1010.3
20260505210309 80 224 3.5 9.6 0.00 0.00 0.00 78 1009.9
20260505205806 80 165 3.5 13.0 0.00 0.00 0.00 77 1009.8
20260505205305 81 99 0.9 5.2 0.00 0.00 0.00 77 1009.8
20260505204801 81 185 8.7 13.0 0.00 0.00 0.00 76 1009.7
20260505204259 81 164 7.0 24.3 0.00 0.00 0.00 75 1009.7
20260505203756 81 200 3.5 14.8 0.00 0.00 0.00 76 1009.8
20260505203253 81 144 6.1 14.8 0.00 0.00 0.00 76 1009.9
20260505202749 82 106 0.9 5.2 0.00 0.00 0.00 76 1009.9
20260505202245 80 193 4.3 9.6 0.00 0.00 0.00 77 1009.9
20260505201741 81 109 1.7 6.1 0.00 0.00 0.00 76 1009.9
20260505201239 81 168 2.6 3.5 0.00 0.00 0.00 76 1009.9
20260505200737 81 186 3.5 7.8 0.00 0.00 0.00 76 1010.0
20260505200235 80 198 6.1 9.6 0.00 0.00 0.00 77 1010.3
20260505195729 80 181 2.6 6.1 0.00 0.00 0.00 78 1010.3
20260505195227 80 107 7.0 14.8 0.00 0.00 0.00 77 1010.5
20260505194724 81 193 9.6 14.8 0.00 0.00 0.00 76 1010.4
20260505194220 80 236 7.8 9.6 0.00 0.00 0.00 77 1010.5
20260505193716 79 128 1.7 11.3 0.00 0.00 0.00 79 1010.6
20260505193214 79 218 7.8 16.5 0.00 0.00 0.00 78 1010.7
20260505192713 79 277 6.1 9.6 0.00 0.00 0.00 79 1010.8
20260505192210 78 227 4.3 9.6 0.00 0.00 0.00 80 1010.8
20260505191708 78 168 8.7 14.8 0.00 0.00 0.00 80 1010.9
20260505191206 78 215 11.3 13.0 0.00 0.00 0.00 80 1011.2
20260505190702 78 177 7.0 7.8 0.00 0.00 0.00 80 1011.1
20260505190201 79 205 4.3 9.6 0.00 0.00 0.00 79 1010.8
20260505185659 79 146 3.5 9.6 0.00 0.00 0.00 79 1011.1
20260505185155 79 153 1.7 13.0 0.00 0.00 0.00 79 1010.8